DW1520 Weather Reports


time (UTC)temp
F
wind
direction
speed
knots
gust
knots
rain 1hr
in
rain 24hr
in
rain mn
in
humidity
%
barometer
mb
20260510052006 47 289 0.0 1.7 0.00 0.00 0.00 50 1013.3
20260510051506 47 289 0.0 0.9 0.00 0.00 0.00 49 1013.3
20260510051006 47 289 0.0 1.7 0.00 0.00 0.00 49 1013.2
20260510050506 47 289 0.9 2.6 0.00 0.00 0.00 49 1013.1
20260510045506 48 271 0.0 0.9 0.00 0.00 0.00 49 1012.9
20260510045006 48 271 0.0 2.6 0.00 0.00 0.00 48 1012.9
20260510044506 48 271 0.0 2.6 0.00 0.00 0.00 48 1012.8
20260510044007 48 330 0.0 1.7 0.00 0.00 0.00 48 1012.8
20260510043506 48 330 0.0 1.7 0.00 0.00 0.00 47 1012.7
20260510043011 48 330 0.0 1.7 0.00 0.00 0.00 47 1012.7
20260510042506 48 330 0.0 0.9 0.00 0.00 0.00 47 1012.6
20260510042006 48 330 0.0 2.6 0.00 0.00 0.00 47 1012.6
20260510041507 48 330 0.0 0.0 0.00 0.00 0.00 46 1012.5
20260510041006 49 330 0.0 0.0 0.00 0.00 0.00 46 1012.5
20260510040506 49 330 0.0 0.0 0.00 0.00 0.00 46 1012.4
20260510040006 49 330 0.0 0.0 0.00 0.00 0.00 45 1012.3
20260510035506 49 330 0.0 0.9 0.00 0.00 0.00 45 1012.3
20260510035006 49 330 0.0 0.9 0.00 0.00 0.00 46 1012.2
20260510034506 49 330 0.0 0.0 0.00 0.00 0.00 45 1012.2
20260510034006 49 330 0.0 0.0 0.00 0.00 0.00 45 1012.2
20260510033506 49 330 0.0 1.7 0.00 0.00 0.00 44 1012.1
20260510033007 49 330 0.0 2.6 0.00 0.00 0.00 45 1012.1
20260510032506 49 330 0.0 2.6 0.00 0.00 0.00 45 1012.0
20260510031506 48 331 0.9 2.6 0.00 0.00 0.00 45 1011.9
20260510030506 48 330 0.0 0.0 0.00 0.00 0.00 47 1011.7
20260510025506 48 330 0.0 0.0 0.00 0.00 0.00 48 1011.5
20260510025006 48 331 0.0 0.0 0.00 0.00 0.00 50 1011.4
20260510024506 48 330 0.0 0.0 0.00 0.00 0.00 47 1011.4
20260510024007 49 330 0.0 0.0 0.00 0.00 0.00 46 1011.3
20260510023506 49 330 0.0 0.0 0.00 0.00 0.00 46 1011.2
20260510023007 49 331 0.0 0.0 0.00 0.00 0.00 44 1011.0
20260510022506 49 331 0.0 0.0 0.00 0.00 0.00 44 1011.0
20260510022006 50 331 0.0 0.0 0.00 0.00 0.00 44 1010.9
20260510021506 50 330 0.0 0.0 0.00 0.00 0.00 43 1010.8
20260510021007 50 330 0.0 0.0 0.00 0.00 0.00 42 1010.7
20260510020506 51 330 0.0 0.0 0.00 0.00 0.00 42 1010.6
20260510020007 51 331 0.0 0.0 0.00 0.00 0.00 41 1010.5
20260510015506 51 330 0.0 0.0 0.00 0.00 0.00 41 1010.4
20260510015006 52 330 0.0 0.0 0.00 0.00 0.00 40 1010.3
20260510014007 53 331 0.0 0.0 0.00 0.00 0.00 39 1010.1
20260510012006 54 331 0.0 1.7 0.00 0.00 0.00 36 1009.6
20260510011506 54 331 0.9 1.7 0.00 0.00 0.00 35 1009.5
20260510011006 55 331 0.0 1.7 0.00 0.00 0.00 36 1009.4
20260510010506 55 331 0.9 1.7 0.00 0.00 0.00 35 1009.3
20260510010006 55 331 0.0 2.6 0.00 0.00 0.00 34 1009.2
20260510004506 56 355 0.9 2.6 0.00 0.00 0.00 34 1009.0
20260510004006 57 357 0.9 2.6 0.00 0.00 0.00 32 1008.9
20260510003008 57 227 2.6 6.1 0.00 0.00 0.00 32 1008.8
20260510002507 57 288 1.7 6.1 0.00 0.00 0.00 31 1008.7
20260510002006 57 296 1.7 7.8 0.00 0.00 0.00 31 1008.7
20260510001506 58 298 2.6 6.1 0.00 0.00 0.00 31 1008.7
20260510000506 58 304 1.7 5.2 0.00 0.00 0.00 32 1008.4
20260509235506 58 304 2.6 6.1 0.00 0.00 0.00 32 1008.4
20260509235006 58 297 2.6 6.1 0.00 0.00 0.00 32 1008.3
20260509234506 58 282 1.7 2.6 0.00 0.00 0.00 32 1008.2
20260509233506 58 322 1.7 2.6 0.00 0.00 0.00 31 1008.2
20260509233007 59 285 1.7 2.6 0.00 0.00 0.00 31 1008.1
20260509232505 59 303 1.7 4.3 0.00 0.00 0.00 31 1008.0
20260509232006 59 287 1.7 4.3 0.00 0.00 0.00 32 1008.0
20260509231506 59 290 2.6 5.2 0.00 0.00 0.00 30 1007.9
20260509230006 60 300 2.6 5.2 0.00 0.00 0.00 30 1007.7
20260509225506 60 312 0.9 2.6 0.00 0.00 0.00 32 1007.6
20260509224506 60 282 2.6 4.3 0.00 0.00 0.00 29 1007.4
20260509224006 60 294 1.7 4.3 0.00 0.00 0.00 30 1007.4
20260509223006 60 302 1.7 7.0 0.00 0.00 0.00 31 1007.4
20260509222505 60 281 5.2 10.4 0.00 0.00 0.00 32 1007.3
20260509222006 60 297 3.5 7.8 0.00 0.00 0.00 30 1007.2
20260509221006 60 283 2.6 7.0 0.00 0.00 0.00 31 1007.1
20260509215506 60 305 2.6 7.0 0.00 0.00 0.00 32 1007.0
20260509215007 60 295 2.6 7.0 0.00 0.00 0.00 32 1006.9
20260509214506 60 298 2.6 11.3 0.00 0.00 0.00 33 1006.9
20260509214006 61 304 2.6 7.8 0.00 0.00 0.00 32 1006.8
20260509213006 61 291 2.6 7.0 0.00 0.00 0.00 33 1006.7
20260509212506 60 321 1.7 5.2 0.00 0.00 0.00 32 1006.8
20260509211506 60 287 4.3 8.7 0.00 0.00 0.00 31 1006.6
20260509210006 61 291 2.6 6.1 0.00 0.00 0.00 31 1006.4
20260509204006 61 303 2.6 7.0 0.00 0.00 0.00 32 1006.4
20260509203007 61 283 2.6 10.4 0.00 0.00 0.00 35 1006.3
20260509202506 61 289 2.6 7.8 0.00 0.00 0.00 35 1006.2
20260509201506 61 298 3.5 12.2 0.00 0.00 0.00 33 1006.2
20260509201006 61 298 2.6 10.4 0.00 0.00 0.00 34 1006.0
20260509200506 61 298 2.6 7.8 0.00 0.00 0.00 36 1005.8
20260509200005 61 300 1.7 10.4 0.00 0.00 0.00 35 1005.9
20260509195505 61 302 2.6 5.2 0.00 0.00 0.00 35 1005.9
20260509195006 61 308 4.3 10.4 0.00 0.00 0.00 33 1005.9
20260509194506 61 301 2.6 7.0 0.00 0.00 0.00 34 1005.8
20260509194006 61 302 3.5 7.0 0.00 0.00 0.00 33 1005.8
20260509192506 61 301 3.5 7.8 0.00 0.00 0.00 33 1005.6
20260509191006 61 298 2.6 8.7 0.00 0.00 0.00 37 1005.6
20260509190506 61 305 3.5 8.7 0.00 0.00 0.00 34 1005.5
20260509190006 60 306 3.5 10.4 0.00 0.00 0.00 36 1005.5
20260509185505 61 297 3.5 7.8 0.00 0.00 0.00 34 1005.4
20260509185006 61 287 3.5 7.8 0.00 0.00 0.00 37 1005.4
20260509184506 61 282 5.2 10.4 0.00 0.00 0.00 36 1005.4
20260509184006 61 286 2.6 8.7 0.00 0.00 0.00 40 1005.3
20260509183506 61 254 4.3 8.7 0.00 0.00 0.00 36 1005.2
20260509183006 61 252 2.6 8.7 0.00 0.00 0.00 37 1005.2
20260509182506 61 294 3.5 10.4 0.00 0.00 0.00 38 1005.1
20260509182006 61 309 1.7 6.1 0.00 0.00 0.00 40 1005.0
20260509181505 61 294 2.6 8.7 0.00 0.00 0.00 40 1005.0
20260509181006 60 301 3.5 11.3 0.00 0.00 0.00 41 1005.0
20260509180506 60 303 2.6 7.8 0.00 0.00 0.00 41 1005.0
20260509180005 60 290 4.3 10.4 0.00 0.00 0.00 41 1004.9
20260509175506 60 305 2.6 7.0 0.00 0.00 0.00 41 1004.9
20260509175006 59 300 2.6 7.8 0.00 0.00 0.00 42 1004.9
20260509174506 59 297 2.6 7.0 0.00 0.00 0.00 42 1004.8
20260509173506 59 287 2.6 8.7 0.00 0.00 0.00 43 1004.8
20260509173006 59 277 5.2 13.9 0.00 0.00 0.00 43 1004.8
20260509172506 59 300 3.5 7.8 0.00 0.00 0.00 44 1004.8
20260509172006 59 285 1.7 8.7 0.00 0.00 0.00 45 1004.6
20260509171006 59 302 2.6 7.0 0.00 0.00 0.00 48 1004.7
20260509170506 58 266 4.3 8.7 0.00 0.00 0.00 46 1004.7
20260509170006 58 284 4.3 7.8 0.00 0.00 0.00 49 1004.7
20260509165506 58 302 1.7 8.7 0.00 0.00 0.00 49 1004.7
20260509165006 58 277 2.6 7.0 0.00 0.00 0.00 50 1004.7
20260509164506 58 312 3.5 10.4 0.00 0.00 0.00 52 1004.6
20260509164005 57 296 2.6 7.0 0.00 0.00 0.00 53 1004.7
20260509163506 58 287 1.7 6.1 0.00 0.00 0.00 52 1004.5
20260509162505 57 262 4.3 10.4 0.00 0.00 0.00 52 1004.6
20260509162006 58 269 2.6 8.7 0.00 0.00 0.00 56 1004.5
20260509161506 57 282 1.7 7.0 0.00 0.00 0.00 57 1004.4
20260509161006 57 279 2.6 7.8 0.00 0.00 0.00 56 1004.4
20260509160505 57 290 4.3 8.7 0.00 0.00 0.00 55 1004.3
20260509155506 56 297 1.7 7.0 0.00 0.00 0.00 59 1004.2
20260509154006 57 297 1.7 8.7 0.00 0.00 0.00 60 1004.1
20260509153506 56 285 2.6 8.7 0.00 0.00 0.00 61 1004.0
20260509153006 56 295 3.5 7.8 0.00 0.00 0.00 62 1004.0
20260509152006 56 296 3.5 7.0 0.00 0.00 0.00 63 1003.7
20260509151506 55 296 1.7 7.8 0.00 0.00 0.00 63 1003.7
20260509151006 55 303 3.5 8.7 0.00 0.00 0.00 62 1003.6
20260509150006 55 310 2.6 7.8 0.00 0.00 0.00 68 1003.4
20260509145506 55 310 2.6 7.0 0.00 0.00 0.00 67 1003.3
20260509144006 56 293 3.5 7.0 0.00 0.00 0.00 68 1002.8
20260509143506 55 298 2.6 8.7 0.00 0.00 0.00 69 1002.7
20260509143006 55 277 1.7 8.7 0.00 0.00 0.00 69 1002.7
20260509142506 55 300 1.7 8.7 0.00 0.00 0.00 70 1002.7
20260509141505 55 302 4.3 7.8 0.00 0.00 0.00 67 1002.6
20260509141006 55 280 3.5 8.7 0.00 0.00 0.00 68 1002.5
20260509140505 55 278 2.6 10.4 0.00 0.00 0.00 67 1002.6
20260509140006 55 286 4.3 12.2 0.00 0.00 0.00 66 1002.5
20260509135506 55 286 1.7 6.1 0.00 0.00 0.00 68 1002.3
20260509135006 56 294 4.3 8.7 0.00 0.00 0.00 67 1002.1
20260509134506 55 289 2.6 10.4 0.00 0.00 0.00 68 1002.1
20260509134006 55 265 3.5 10.4 0.00 0.00 0.00 66 1002.1
20260509133506 56 299 2.6 7.0 0.00 0.00 0.00 67 1002.1
20260509133006 55 277 4.3 10.4 0.00 0.00 0.00 66 1002.1
20260509131506 54 310 2.6 5.2 0.00 0.00 0.00 63 1001.9
20260509131006 54 282 2.6 6.1 0.00 0.00 0.00 62 1001.8
20260509130506 53 288 0.9 2.6 0.00 0.00 0.00 62 1001.8
20260509130005 52 289 0.9 2.6 0.00 0.00 0.00 64 1001.7
20260509125006 51 289 0.9 2.6 0.00 0.00 0.00 62 1001.8
20260509124005 51 289 0.0 0.9 0.00 0.00 0.00 63 1001.5
20260509123506 50 289 0.0 0.9 0.00 0.00 0.00 63 1001.5
20260509123006 50 289 0.0 0.9 0.00 0.00 0.00 63 1001.6
20260509122006 50 289 0.0 0.9 0.00 0.00 0.00 59 1001.6
20260509121506 50 289 0.9 0.9 0.00 0.00 0.00 60 1001.6
20260509121005 50 289 0.0 0.9 0.00 0.00 0.00 59 1001.6
20260509120506 50 289 0.0 1.7 0.00 0.00 0.00 60 1001.6
20260509120006 50 289 0.9 0.9 0.00 0.00 0.00 58 1001.5
20260509115505 50 289 0.0 0.0 0.00 0.00 0.00 57 1001.3
20260509115006 50 289 0.0 1.7 0.00 0.00 0.00 57 1001.0
20260509114506 51 289 0.0 1.7 0.00 0.00 0.00 57 1000.8
20260509114006 51 289 0.0 1.7 0.00 0.00 0.00 56 1001.1
20260509113506 50 289 0.9 2.6 0.00 0.00 0.00 56 1001.3
20260509113006 50 289 0.9 2.6 0.00 0.00 0.00 56 1001.2
20260509112505 50 289 0.9 2.6 0.00 0.00 0.00 56 1001.2
20260509112006 50 289 0.9 2.6 0.00 0.00 0.00 55 1001.0
20260509111506 50 289 0.0 0.9 0.00 0.00 0.00 55 1001.1
20260509111006 50 289 0.0 0.9 0.00 0.00 0.00 55 1001.0
20260509110006 50 289 0.0 0.9 0.00 0.00 0.00 56 1000.9
20260509105006 49 289 0.9 2.6 0.00 0.00 0.00 56 1000.6
20260509104505 49 289 0.9 1.7 0.00 0.00 0.00 58 1000.7
20260509104006 49 289 0.9 2.6 0.00 0.00 0.00 58 1000.8
20260509103006 48 306 0.9 2.6 0.00 0.00 0.00 61 1000.6
20260509102506 47 128 0.9 2.6 0.00 0.00 0.00 64 1000.3
20260509102006 47 128 1.7 2.6 0.00 0.00 0.00 65 999.9
20260509101506 46 128 1.7 2.6 0.00 0.00 0.00 64 999.9
20260509100506 45 311 0.0 1.7 0.00 0.00 0.00 67 999.8
20260509100006 45 311 0.0 0.9 0.00 0.00 0.00 70 999.7
20260509095506 45 311 0.0 0.9 0.00 0.00 0.00 68 999.8
20260509095006 45 311 0.0 0.0 0.00 0.00 0.00 69 999.9
20260509094506 45 311 0.0 0.0 0.00 0.00 0.00 67 999.8
20260509093506 45 311 0.0 0.0 0.00 0.00 0.00 68 1000.0
20260509093006 45 311 0.0 0.0 0.00 0.00 0.00 64 1000.0
20260509092506 45 311 0.0 0.0 0.00 0.00 0.00 64 1000.1
20260509092006 45 311 0.0 0.0 0.00 0.00 0.00 64 1000.1
20260509091505 45 311 0.0 0.0 0.00 0.00 0.00 63 1000.2
20260509091006 46 311 0.0 0.0 0.00 0.00 0.00 64 1000.0
20260509090506 46 311 0.0 0.0 0.00 0.00 0.00 62 1000.1
20260509090006 46 311 0.0 0.0 0.00 0.00 0.00 60 1000.2
20260509085505 46 311 0.0 0.0 0.00 0.00 0.00 59 1000.2
20260509084506 47 311 0.0 0.0 0.00 0.00 0.00 60 1000.2
20260509084006 47 311 0.0 0.0 0.00 0.00 0.00 58 1000.1
20260509083506 47 311 0.0 0.0 0.00 0.00 0.00 58 1000.0
20260509083012 47 311 0.0 0.0 0.00 0.00 0.00 58 1000.1
20260509082506 47 311 0.0 0.0 0.00 0.00 0.00 57 999.8
20260509082005 47 311 0.0 0.0 0.00 0.00 0.00 56 999.8
20260509081505 48 311 0.0 0.0 0.00 0.00 0.00 55 999.8
20260509081006 48 311 0.0 0.0 0.00 0.00 0.00 54 1000.0
20260509080506 48 311 0.0 0.0 0.00 0.00 0.00 53 1000.0
20260509080006 48 311 0.0 0.0 0.00 0.00 0.00 54 1000.0
20260509075505 49 311 0.0 0.0 0.00 0.00 0.00 53 1000.1
20260509075005 49 311 0.0 0.0 0.00 0.00 0.00 53 1000.1
20260509074507 49 311 0.0 0.0 0.00 0.00 0.00 55 1000.1
20260509073506 50 311 0.0 0.0 0.00 0.00 0.00 50 1000.2
20260509073006 51 311 0.0 0.0 0.00 0.00 0.00 50 1000.3
20260509072006 51 311 0.0 0.0 0.00 0.00 0.00 48 1000.4
20260509071506 52 311 0.0 0.0 0.00 0.00 0.00 47 1000.4
20260509071006 52 311 0.0 0.0 0.00 0.00 0.00 46 1000.5
20260509070005 53 311 0.0 0.0 0.00 0.00 0.00 45 1000.6
20260509065506 53 311 0.0 0.0 0.00 0.00 0.00 45 1000.7
20260509065006 53 311 0.0 0.0 0.00 0.00 0.00 45 1000.8
20260509064505 54 311 0.0 0.0 0.00 0.00 0.00 44 1000.7
20260509064006 54 311 0.0 0.0 0.00 0.00 0.00 43 1000.9
20260509062506 55 311 0.0 0.9 0.00 0.00 0.00 41 1000.9
20260509062006 55 311 0.0 0.0 0.00 0.00 0.00 42 1000.8
20260509061505 56 311 0.0 0.9 0.00 0.00 0.00 41 1000.8
20260509060506 56 311 0.9 2.6 0.00 0.00 0.00 40 1001.1
20260509060006 56 311 0.9 1.7 0.00 0.00 0.00 40 1001.1
20260509055505 57 311 0.9 2.6 0.00 0.00 0.00 40 1001.0
20260509055006 57 311 1.7 2.6 0.00 0.00 0.00 40 1001.0
20260509054006 57 292 1.7 2.6 0.00 0.00 0.00 39 1001.0
20260509053505 57 287 1.7 2.6 0.00 0.00 0.00 39 1001.0
20260509053005 58 306 1.7 2.6 0.00 0.00 0.00 39 1001.0
20260509052505 58 317 2.6 7.0 0.00 0.00 0.00 38 1001.0